This is the latest recevied weather packets stored in our database for station/object KD7JB. If no packets are shown the sender has not sent any weather packets the latest 1 day(s).
| Time | Temp. | Humidity | Pressure | Rain* | Wind** | Luminosity | Snow |
|---|---|---|---|---|---|---|---|
| 1778056901 | 15.56° C | 50% | 1174.9 hPa | 0 mm | 3.13 m/s, 5° | 0 W/m² | - |
| 1778056598 | 15° C | 50% | 1175.1 hPa | 0 mm | 2.68 m/s, 343° | 0 W/m² | - |
| 1778056296 | 15° C | 51% | 1174.8 hPa | 0 mm | 3.13 m/s, 1° | 0 W/m² | - |
| 1778055992 | 15° C | 52% | 1174.8 hPa | 0 mm | 2.24 m/s, 12° | 0 W/m² | - |
| 1778055688 | 15° C | 53% | 1174.6 hPa | 0 mm | 3.13 m/s, 357° | 0 W/m² | - |
| 1778055386 | 15° C | 53% | 1174.8 hPa | 0 mm | 2.24 m/s, 16° | 0 W/m² | - |
| 1778055084 | 14.44° C | 53% | 1174.9 hPa | 0 mm | 3.13 m/s, 23° | 0 W/m² | - |
| 1778054781 | 14.44° C | 54% | 1174.9 hPa | 0 mm | 1.79 m/s, 9° | 0 W/m² | - |
| 1778054478 | 15° C | 53% | 1175.1 hPa | 0 mm | 2.24 m/s, 12° | 0 W/m² | - |
| 1778054176 | 15° C | 53% | 1174.9 hPa | 0 mm | 1.79 m/s, 20° | 0 W/m² | - |
| 1778053872 | 15° C | 53% | 1174.9 hPa | 0 mm | 2.68 m/s, 11° | 0 W/m² | - |
| 1778053570 | 15° C | 53% | 1174.7 hPa | 0 mm | 1.79 m/s, 34° | 0 W/m² | - |
| 1778053267 | 15° C | 53% | 1174.9 hPa | 0 mm | 2.24 m/s, 2° | 0 W/m² | - |
| 1778052964 | 15° C | 53% | 1174.8 hPa | 0 mm | 2.24 m/s, 356° | 0 W/m² | - |
| 1778052661 | 15° C | 53% | 1174.6 hPa | 0 mm | 2.68 m/s, 7° | 0 W/m² | - |
| 1778052358 | 15° C | 52% | 1174.7 hPa | 0 mm | 2.24 m/s, 12° | 0 W/m² | - |
| 1778052056 | 15.56° C | 53% | 1174.7 hPa | 0 mm | 1.79 m/s, 1° | 0 W/m² | - |
| 1778051754 | 15.56° C | 51% | 1174.6 hPa | 0 mm | 3.58 m/s, 4° | 0 W/m² | - |
| 1778051451 | 15° C | 52% | 1174.7 hPa | 0 mm | 4.02 m/s, 6° | 0 W/m² | - |
| 1778051148 | 15.56° C | 53% | 1174.6 hPa | 0 mm | 2.68 m/s, 13° | 0 W/m² | - |
| 1778050845 | 15° C | 54% | 1174.5 hPa | 0 mm | 2.68 m/s, 30° | 0 W/m² | - |
| 1778050543 | 15° C | 54% | 1174.5 hPa | 0 mm | 2.24 m/s, 21° | 0 W/m² | - |
| 1778050239 | 15.56° C | 53% | 1174.6 hPa | 0 mm | 2.24 m/s, 15° | 0 W/m² | - |
| 1778049936 | 15.56° C | 53% | 1174.5 hPa | 0 mm | 1.79 m/s, 4° | 0 W/m² | - |
| 1778049642 | 15.56° C | 52% | 1174.6 hPa | 0 mm | 2.68 m/s, 9° | 0 W/m² | - |
* Rain latest hour (hover to see other rain measurements)
** Current wind speed in m/s (hover to see current wind gust speed)